Back to catalog

STARLINK-30614

AliveCommunicationsVLEO
NORAD 58098·PAYLOAD·🇺🇸 United States

Launched Oct 21, 2023 from Vandenberg Space Force Base

Loading…

Next Passes (next 24 hours)

TLE

FreshSource: CelesTrak SupGP

Epoch: Sep 15, 2026, 02:53 UTC

1 58098C 23161B   26258.12062500  .00066228  00000+0  19570-2 0  2587
2 58098  53.1595   2.9470 0001323  92.6200 223.5155 15.34352320    12

Track STARLINK-30614 in real time with AllMySat

Download on the App Store